owner,sensor,date,latitude,longitude,sea_water_turbidity,qcFlag 
FWRI,ioos:station:FWRI:OTB:1,2013-02-01T00:59:00Z,27.9320,-82.6475,0.1,1111122 
FWRI,ioos:station:FWRI:OTB:1,2013-02-01T01:59:00Z,27.9320,-82.6475,0.1,1111122 
FWRI,ioos:station:FWRI:OTB:1,2013-02-01T02:59:00Z,27.9320,-82.6475,0.1,1111122 
FWRI,ioos:station:FWRI:OTB:1,2013-02-01T03:59:00Z,27.9320,-82.6475,0.1,1111122 
FWRI,ioos:station:FWRI:OTB:1,2013-02-01T04:59:00Z,27.9320,-82.6475,0.1,1111122 
FWRI,ioos:station:FWRI:OTB:1,2013-02-01T05:59:00Z,27.9320,-82.6475,0.1,1111122 
FWRI,ioos:station:FWRI:OTB:1,2013-02-01T06:59:00Z,27.9320,-82.6475,0.4,1111122 
FWRI,ioos:station:FWRI:OTB:1,2013-02-01T07:59:00Z,27.9320,-82.6475,0.1,1111122 
FWRI,ioos:station:FWRI:OTB:1,2013-02-01T08:59:00Z,27.9320,-82.6475,0.3,1111122 
FWRI,ioos:station:FWRI:OTB:1,2013-02-01T09:59:00Z,27.9320,-82.6475,0.3,1111122 
FWRI,ioos:station:FWRI:OTB:1,2013-02-01T10:59:00Z,27.9320,-82.6475,0.3,1111122 
FWRI,ioos:station:FWRI:OTB:1,2013-02-01T11:59:00Z,27.9320,-82.6475,0.2,1111122 
FWRI,ioos:station:FWRI:OTB:1,2013-02-01T12:59:00Z,27.9320,-82.6475,0.2,1111122 
FWRI,ioos:station:FWRI:OTB:1,2013-02-01T13:59:00Z,27.9320,-82.6475,0.1,1111122 
FWRI,ioos:station:FWRI:OTB:1,2013-02-01T14:59:00Z,27.9320,-82.6475,0.1,1111122 
FWRI,ioos:station:FWRI:OTB:1,2013-02-01T15:59:00Z,27.9320,-82.6475,0.3,1111122 
FWRI,ioos:station:FWRI:OTB:1,2013-02-01T16:59:00Z,27.9320,-82.6475,0.4,1111122 
FWRI,ioos:station:FWRI:OTB:1,2013-02-01T17:59:00Z,27.9320,-82.6475,0.2,1111122 
FWRI,ioos:station:FWRI:OTB:1,2013-02-01T18:59:00Z,27.9320,-82.6475,0.1,1111122 
FWRI,ioos:station:FWRI:OTB:1,2013-02-01T19:59:00Z,27.9320,-82.6475,0.1,1111122 
FWRI,ioos:station:FWRI:OTB:1,2013-02-01T20:59:00Z,27.9320,-82.6475,0.1,1111122 
FWRI,ioos:station:FWRI:OTB:1,2013-02-01T21:59:00Z,27.9320,-82.6475,0.3,1111122 
FWRI,ioos:station:FWRI:OTB:1,2013-02-01T22:59:00Z,27.9320,-82.6475,0.2,1111122 
FWRI,ioos:station:FWRI:OTB:1,2013-02-01T23:59:00Z,27.9320,-82.6475,0.1,1111122 
FWRI,ioos:station:FWRI:OTB:1,2013-02-02T00:59:00Z,27.9320,-82.6475,0.2,1111122 
FWRI,ioos:station:FWRI:OTB:1,2013-02-02T02:59:00Z,27.9320,-82.6475,0.2,1111122 
FWRI,ioos:station:FWRI:OTB:1,2013-02-02T03:59:00Z,27.9320,-82.6475,0.2,1111122 
FWRI,ioos:station:FWRI:OTB:1,2013-02-02T04:59:00Z,27.9320,-82.6475,0.1,1111122 
FWRI,ioos:station:FWRI:OTB:1,2013-02-02T05:59:00Z,27.9320,-82.6475,0.1,1111122 
FWRI,ioos:station:FWRI:OTB:1,2013-02-02T06:59:00Z,27.9320,-82.6475,0.1,1111122 
FWRI,ioos:station:FWRI:OTB:1,2013-02-02T07:59:00Z,27.9320,-82.6475,0.1,1111122 
FWRI,ioos:station:FWRI:OTB:1,2013-02-02T08:59:00Z,27.9320,-82.6475,0.1,1111122 
FWRI,ioos:station:FWRI:OTB:1,2013-02-02T09:59:00Z,27.9320,-82.6475,0.3,1111122 
FWRI,ioos:station:FWRI:OTB:1,2013-02-02T10:59:00Z,27.9320,-82.6475,0.2,1111122 
FWRI,ioos:station:FWRI:OTB:1,2013-02-02T11:59:00Z,27.9320,-82.6475,0.2,1111122 
FWRI,ioos:station:FWRI:OTB:1,2013-02-02T12:59:00Z,27.9320,-82.6475,0.2,1111122 
FWRI,ioos:station:FWRI:OTB:1,2013-02-02T13:59:00Z,27.9320,-82.6475,0.2,1111122 
FWRI,ioos:station:FWRI:OTB:1,2013-02-02T14:59:00Z,27.9320,-82.6475,0.2,1111122 
FWRI,ioos:station:FWRI:OTB:1,2013-02-02T15:59:00Z,27.9320,-82.6475,0.2,1111122 
FWRI,ioos:station:FWRI:OTB:1,2013-02-02T16:59:00Z,27.9320,-82.6475,0.2,1111122 
FWRI,ioos:station:FWRI:OTB:1,2013-02-02T21:59:00Z,27.9320,-82.6475,0.4,1111122 
FWRI,ioos:station:FWRI:OTB:1,2013-02-02T23:59:00Z,27.9320,-82.6475,0.2,1111122 
FWRI,ioos:station:FWRI:OTB:1,2013-02-03T00:59:00Z,27.9320,-82.6475,0.3,1111122 
FWRI,ioos:station:FWRI:OTB:1,2013-02-03T01:59:00Z,27.9320,-82.6475,0.2,1111122 
FWRI,ioos:station:FWRI:OTB:1,2013-02-03T02:59:00Z,27.9320,-82.6475,0.3,1111122 
FWRI,ioos:station:FWRI:OTB:1,2013-02-03T03:59:00Z,27.9320,-82.6475,0.3,1111122 
FWRI,ioos:station:FWRI:OTB:1,2013-02-03T04:59:00Z,27.9320,-82.6475,0.3,1111122 
FWRI,ioos:station:FWRI:OTB:1,2013-02-03T05:59:00Z,27.9320,-82.6475,0.1,1111122 
FWRI,ioos:station:FWRI:OTB:1,2013-02-03T06:59:00Z,27.9320,-82.6475,0.1,1111122 
FWRI,ioos:station:FWRI:OTB:1,2013-02-03T09:59:00Z,27.9320,-82.6475,0.1,1111122 
FWRI,ioos:station:FWRI:OTB:1,2013-02-03T10:59:00Z,27.9320,-82.6475,0.1,1111122 
FWRI,ioos:station:FWRI:OTB:1,2013-02-03T12:59:00Z,27.9320,-82.6475,0.1,1111122 
FWRI,ioos:station:FWRI:OTB:1,2013-02-03T14:59:00Z,27.9320,-82.6475,0.1,1111122 
FWRI,ioos:station:FWRI:OTB:1,2013-02-03T18:59:00Z,27.9320,-82.6475,0.6,1111122 
FWRI,ioos:station:FWRI:OTB:1,2013-02-03T19:59:00Z,27.9320,-82.6475,0.1,1111122 
FWRI,ioos:station:FWRI:OTB:1,2013-02-03T21:59:00Z,27.9320,-82.6475,0.1,1111122 
FWRI,ioos:station:FWRI:OTB:1,2013-02-03T22:59:00Z,27.9320,-82.6475,0.3,1111122 
FWRI,ioos:station:FWRI:OTB:1,2013-02-03T23:59:00Z,27.9320,-82.6475,0.1,1111122 
FWRI,ioos:station:FWRI:OTB:1,2013-02-04T00:59:00Z,27.9320,-82.6475,0.1,1111122 
FWRI,ioos:station:FWRI:OTB:1,2013-02-04T02:59:00Z,27.9320,-82.6475,0.3,1111122 
FWRI,ioos:station:FWRI:OTB:1,2013-02-04T03:59:00Z,27.9320,-82.6475,0.1,1111122 
FWRI,ioos:station:FWRI:OTB:1,2013-02-04T04:59:00Z,27.9320,-82.6475,0.1,1111122 
FWRI,ioos:station:FWRI:OTB:1,2013-02-04T05:59:00Z,27.9320,-82.6475,0.2,1111122 
FWRI,ioos:station:FWRI:OTB:1,2013-02-04T06:59:00Z,27.9320,-82.6475,0.1,1111122 
FWRI,ioos:station:FWRI:OTB:1,2013-02-04T07:59:00Z,27.9320,-82.6475,0.1,1111122 
FWRI,ioos:station:FWRI:OTB:1,2013-02-04T08:59:00Z,27.9320,-82.6475,0.1,1111122 
FWRI,ioos:station:FWRI:OTB:1,2013-02-04T09:59:00Z,27.9320,-82.6475,0.1,1111122 
FWRI,ioos:station:FWRI:OTB:1,2013-02-04T10:59:00Z,27.9320,-82.6475,0.1,1111122 
FWRI,ioos:station:FWRI:OTB:1,2013-02-04T11:59:00Z,27.9320,-82.6475,0.1,1111122 
FWRI,ioos:station:FWRI:OTB:1,2013-02-04T12:59:00Z,27.9320,-82.6475,0.3,1111122 
FWRI,ioos:station:FWRI:OTB:1,2013-02-04T13:59:00Z,27.9320,-82.6475,0.1,1111122 
FWRI,ioos:station:FWRI:OTB:1,2013-02-04T14:59:00Z,27.9320,-82.6475,0.3,1111122 
FWRI,ioos:station:FWRI:OTB:1,2013-02-04T15:59:00Z,27.9320,-82.6475,0.3,1111122 
FWRI,ioos:station:FWRI:OTB:1,2013-02-04T16:59:00Z,27.9320,-82.6475,0.3,1111122 
FWRI,ioos:station:FWRI:OTB:1,2013-02-04T17:59:00Z,27.9320,-82.6475,0.2,1111122 
FWRI,ioos:station:FWRI:OTB:1,2013-02-04T18:59:00Z,27.9320,-82.6475,0.1,1111122 
FWRI,ioos:station:FWRI:OTB:1,2013-02-04T21:59:00Z,27.9320,-82.6475,0.2,1111122 
FWRI,ioos:station:FWRI:OTB:1,2013-02-04T22:59:00Z,27.9320,-82.6475,0.1,1111122 
FWRI,ioos:station:FWRI:OTB:1,2013-02-05T00:59:00Z,27.9320,-82.6475,0.2,1111122 
FWRI,ioos:station:FWRI:OTB:1,2013-02-05T01:59:00Z,27.9320,-82.6475,0.1,1111122 
FWRI,ioos:station:FWRI:OTB:1,2013-02-05T03:59:00Z,27.9320,-82.6475,0.2,1111122 
FWRI,ioos:station:FWRI:OTB:1,2013-02-05T08:59:00Z,27.9320,-82.6475,0.3,1111122 
FWRI,ioos:station:FWRI:OTB:1,2013-02-05T09:59:00Z,27.9320,-82.6475,0.1,1111122 
FWRI,ioos:station:FWRI:OTB:1,2013-02-05T10:59:00Z,27.9320,-82.6475,0.1,1111122 
FWRI,ioos:station:FWRI:OTB:1,2013-02-05T11:59:00Z,27.9320,-82.6475,0.2,1111122 
FWRI,ioos:station:FWRI:OTB:1,2013-02-05T15:59:00Z,27.9320,-82.6475,0.1,1111122 
FWRI,ioos:station:FWRI:OTB:1,2013-02-05T21:59:00Z,27.9320,-82.6475,0.5,1111122 
FWRI,ioos:station:FWRI:OTB:1,2013-02-06T06:59:00Z,27.9320,-82.6475,0.1,1111122 
FWRI,ioos:station:FWRI:OTB:1,2013-02-06T07:59:00Z,27.9320,-82.6475,0.1,1111122 
FWRI,ioos:station:FWRI:OTB:1,2013-02-06T09:59:00Z,27.9320,-82.6475,0.1,1111122 
FWRI,ioos:station:FWRI:OTB:1,2013-02-06T12:59:00Z,27.9320,-82.6475,0.2,1111122 
FWRI,ioos:station:FWRI:OTB:1,2013-02-07T06:59:00Z,27.9320,-82.6475,0.2,1111122 
FWRI,ioos:station:FWRI:OTB:1,2013-02-07T08:59:00Z,27.9320,-82.6475,0.1,1111122 
FWRI,ioos:station:FWRI:OTB:1,2013-02-07T09:59:00Z,27.9320,-82.6475,0.4,1111122 
FWRI,ioos:station:FWRI:OTB:1,2013-02-07T14:59:00Z,27.9320,-82.6475,0.4,1111122 
FWRI,ioos:station:FWRI:OTB:1,2013-02-07T15:59:00Z,27.9320,-82.6475,0.1,1111122 
FWRI,ioos:station:FWRI:OTB:1,2013-02-07T16:59:00Z,27.9320,-82.6475,0.1,1111122 
FWRI,ioos:station:FWRI:OTB:1,2013-02-07T22:59:00Z,27.9320,-82.6475,0.1,1111122 
FWRI,ioos:station:FWRI:OTB:1,2013-02-08T00:59:00Z,27.9320,-82.6475,0.1,1111122 
FWRI,ioos:station:FWRI:OTB:1,2013-02-08T01:59:00Z,27.9320,-82.6475,0.2,1111122 
FWRI,ioos:station:FWRI:OTB:1,2013-02-08T04:59:00Z,27.9320,-82.6475,0.1,1111122 
FWRI,ioos:station:FWRI:OTB:1,2013-02-08T08:59:00Z,27.9320,-82.6475,0.3,1111122 
FWRI,ioos:station:FWRI:OTB:1,2013-02-08T09:59:00Z,27.9320,-82.6475,0.2,1111122 
FWRI,ioos:station:FWRI:OTB:1,2013-02-08T10:59:00Z,27.9320,-82.6475,0.2,1111122 
FWRI,ioos:station:FWRI:OTB:1,2013-02-08T11:59:00Z,27.9320,-82.6475,0.1,1111122 
FWRI,ioos:station:FWRI:OTB:1,2013-02-08T12:59:00Z,27.9320,-82.6475,0.1,1111122 
FWRI,ioos:station:FWRI:OTB:1,2013-02-08T13:59:00Z,27.9320,-82.6475,0.2,1111122 
FWRI,ioos:station:FWRI:OTB:1,2013-02-08T14:59:00Z,27.9320,-82.6475,0.1,1111122 
FWRI,ioos:station:FWRI:OTB:1,2013-02-08T15:59:00Z,27.9320,-82.6475,0.3,1111122 
FWRI,ioos:station:FWRI:OTB:1,2013-02-08T16:59:00Z,27.9320,-82.6475,0.2,1111122 
FWRI,ioos:station:FWRI:OTB:1,2013-02-08T18:59:00Z,27.9320,-82.6475,0.4,1111122 
FWRI,ioos:station:FWRI:OTB:1,2013-02-08T19:59:00Z,27.9320,-82.6475,0.6,1111122 
FWRI,ioos:station:FWRI:OTB:1,2013-02-08T20:59:00Z,27.9320,-82.6475,0.3,1111122 
FWRI,ioos:station:FWRI:OTB:1,2013-02-08T21:59:00Z,27.9320,-82.6475,0.2,1111122 
FWRI,ioos:station:FWRI:OTB:1,2013-02-08T22:59:00Z,27.9320,-82.6475,0.1,1111122 
FWRI,ioos:station:FWRI:OTB:1,2013-02-08T23:59:00Z,27.9320,-82.6475,0.3,1111122 
FWRI,ioos:station:FWRI:OTB:1,2013-02-09T00:59:00Z,27.9320,-82.6475,0.3,1111122 
FWRI,ioos:station:FWRI:OTB:1,2013-02-09T01:59:00Z,27.9320,-82.6475,0.3,1111122 
FWRI,ioos:station:FWRI:OTB:1,2013-02-09T02:59:00Z,27.9320,-82.6475,0.5,1111122 
FWRI,ioos:station:FWRI:OTB:1,2013-02-09T03:59:00Z,27.9320,-82.6475,0.4,1111122 
FWRI,ioos:station:FWRI:OTB:1,2013-02-09T04:59:00Z,27.9320,-82.6475,0.4,1111122 
FWRI,ioos:station:FWRI:OTB:1,2013-02-09T05:59:00Z,27.9320,-82.6475,0.1,1111122 
FWRI,ioos:station:FWRI:OTB:1,2013-02-09T07:59:00Z,27.9320,-82.6475,0.2,1111122 
FWRI,ioos:station:FWRI:OTB:1,2013-02-09T10:59:00Z,27.9320,-82.6475,0.2,1111122 
FWRI,ioos:station:FWRI:OTB:1,2013-02-09T11:59:00Z,27.9320,-82.6475,0.3,1111122 
FWRI,ioos:station:FWRI:OTB:1,2013-02-09T12:59:00Z,27.9320,-82.6475,0.2,1111122 
FWRI,ioos:station:FWRI:OTB:1,2013-02-09T13:59:00Z,27.9320,-82.6475,0.2,1111122 
FWRI,ioos:station:FWRI:OTB:1,2013-02-09T14:59:00Z,27.9320,-82.6475,0.3,1111122 
FWRI,ioos:station:FWRI:OTB:1,2013-02-09T15:59:00Z,27.9320,-82.6475,0.4,1111122 
FWRI,ioos:station:FWRI:OTB:1,2013-02-09T16:59:00Z,27.9320,-82.6475,0.2,1111122 
FWRI,ioos:station:FWRI:OTB:1,2013-02-09T17:59:00Z,27.9320,-82.6475,0.2,1111122 
FWRI,ioos:station:FWRI:OTB:1,2013-02-09T18:59:00Z,27.9320,-82.6475,0.1,1111122 
FWRI,ioos:station:FWRI:OTB:1,2013-02-09T20:59:00Z,27.9320,-82.6475,0.1,1111122 
FWRI,ioos:station:FWRI:OTB:1,2013-02-10T00:59:00Z,27.9320,-82.6475,0.1,1111122 
FWRI,ioos:station:FWRI:OTB:1,2013-02-10T01:59:00Z,27.9320,-82.6475,0.4,1111122 
FWRI,ioos:station:FWRI:OTB:1,2013-02-10T02:59:00Z,27.9320,-82.6475,0.5,1111122 
FWRI,ioos:station:FWRI:OTB:1,2013-02-10T03:59:00Z,27.9320,-82.6475,0.2,1111122 
FWRI,ioos:station:FWRI:OTB:1,2013-02-10T04:59:00Z,27.9320,-82.6475,0.2,1111122 
FWRI,ioos:station:FWRI:OTB:1,2013-02-10T05:59:00Z,27.9320,-82.6475,0.1,1111122 
FWRI,ioos:station:FWRI:OTB:1,2013-02-10T06:59:00Z,27.9320,-82.6475,0.2,1111122 
FWRI,ioos:station:FWRI:OTB:1,2013-02-10T07:59:00Z,27.9320,-82.6475,0.3,1111122 
FWRI,ioos:station:FWRI:OTB:1,2013-02-10T10:59:00Z,27.9320,-82.6475,0.1,1111122 
FWRI,ioos:station:FWRI:OTB:1,2013-02-10T11:59:00Z,27.9320,-82.6475,0.4,1111122 
FWRI,ioos:station:FWRI:OTB:1,2013-02-10T12:59:00Z,27.9320,-82.6475,0.2,1111122 
FWRI,ioos:station:FWRI:OTB:1,2013-02-10T13:59:00Z,27.9320,-82.6475,0.2,1111122 
FWRI,ioos:station:FWRI:OTB:1,2013-02-10T14:59:00Z,27.9320,-82.6475,0.3,1111122 
FWRI,ioos:station:FWRI:OTB:1,2013-02-10T15:59:00Z,27.9320,-82.6475,0.4,1111122 
FWRI,ioos:station:FWRI:OTB:1,2013-02-10T16:59:00Z,27.9320,-82.6475,0.5,1111122 
FWRI,ioos:station:FWRI:OTB:1,2013-02-10T17:59:00Z,27.9320,-82.6475,0.3,1111122 
FWRI,ioos:station:FWRI:OTB:1,2013-02-10T18:59:00Z,27.9320,-82.6475,0.1,1111122 
FWRI,ioos:station:FWRI:OTB:1,2013-02-10T20:59:00Z,27.9320,-82.6475,0.1,1111122 
FWRI,ioos:station:FWRI:OTB:1,2013-02-10T21:59:00Z,27.9320,-82.6475,0.4,1111122 
FWRI,ioos:station:FWRI:OTB:1,2013-02-10T22:59:00Z,27.9320,-82.6475,0.1,1111122 
FWRI,ioos:station:FWRI:OTB:1,2013-02-10T23:59:00Z,27.9320,-82.6475,0.1,1111122 
FWRI,ioos:station:FWRI:OTB:1,2013-02-11T00:59:00Z,27.9320,-82.6475,0.1,1111122 
FWRI,ioos:station:FWRI:OTB:1,2013-02-11T01:59:00Z,27.9320,-82.6475,0.1,1111122 
FWRI,ioos:station:FWRI:OTB:1,2013-02-11T02:59:00Z,27.9320,-82.6475,0.7,1111122 
FWRI,ioos:station:FWRI:OTB:1,2013-02-11T03:59:00Z,27.9320,-82.6475,0.1,1111122 
FWRI,ioos:station:FWRI:OTB:1,2013-02-11T04:59:00Z,27.9320,-82.6475,0.1,1111122 
FWRI,ioos:station:FWRI:OTB:1,2013-02-11T05:59:00Z,27.9320,-82.6475,0.1,1111122 
FWRI,ioos:station:FWRI:OTB:1,2013-02-11T07:59:00Z,27.9320,-82.6475,0.1,1111122 
FWRI,ioos:station:FWRI:OTB:1,2013-02-11T08:59:00Z,27.9320,-82.6475,0.1,1111122 
FWRI,ioos:station:FWRI:OTB:1,2013-02-11T09:59:00Z,27.9320,-82.6475,0.2,1111122 
FWRI,ioos:station:FWRI:OTB:1,2013-02-11T12:59:00Z,27.9320,-82.6475,0.1,1111122 
FWRI,ioos:station:FWRI:OTB:1,2013-02-11T13:59:00Z,27.9320,-82.6475,0.5,1111122 
FWRI,ioos:station:FWRI:OTB:1,2013-02-11T14:59:00Z,27.9320,-82.6475,0.4,1111122 
FWRI,ioos:station:FWRI:OTB:1,2013-02-11T15:59:00Z,27.9320,-82.6475,0.2,1111122 
FWRI,ioos:station:FWRI:OTB:1,2013-02-11T16:59:00Z,27.9320,-82.6475,0.5,1111122 
FWRI,ioos:station:FWRI:OTB:1,2013-02-11T17:59:00Z,27.9320,-82.6475,0.1,1111122 
FWRI,ioos:station:FWRI:OTB:1,2013-02-11T18:59:00Z,27.9320,-82.6475,0.1,1111122 
FWRI,ioos:station:FWRI:OTB:1,2013-02-11T19:59:00Z,27.9320,-82.6475,0.1,1111122 
FWRI,ioos:station:FWRI:OTB:1,2013-02-11T20:59:00Z,27.9320,-82.6475,0.1,1111122 
FWRI,ioos:station:FWRI:OTB:1,2013-02-11T22:59:00Z,27.9320,-82.6475,0.1,1111122 
FWRI,ioos:station:FWRI:OTB:1,2013-02-11T23:59:00Z,27.9320,-82.6475,0.1,1111122 
FWRI,ioos:station:FWRI:OTB:1,2013-02-12T00:59:00Z,27.9320,-82.6475,0.3,1111122 
FWRI,ioos:station:FWRI:OTB:1,2013-02-12T01:59:00Z,27.9320,-82.6475,0.2,1111122 
FWRI,ioos:station:FWRI:OTB:1,2013-02-12T02:59:00Z,27.9320,-82.6475,0.3,1111122 
FWRI,ioos:station:FWRI:OTB:1,2013-02-12T03:59:00Z,27.9320,-82.6475,0.7,1111122 
FWRI,ioos:station:FWRI:OTB:1,2013-02-12T04:59:00Z,27.9320,-82.6475,0.6,1111122 
FWRI,ioos:station:FWRI:OTB:1,2013-02-12T05:59:00Z,27.9320,-82.6475,0.5,1111122 
FWRI,ioos:station:FWRI:OTB:1,2013-02-12T06:59:00Z,27.9320,-82.6475,0.2,1111122 
FWRI,ioos:station:FWRI:OTB:1,2013-02-12T07:59:00Z,27.9320,-82.6475,0.2,1111122 
FWRI,ioos:station:FWRI:OTB:1,2013-02-12T08:59:00Z,27.9320,-82.6475,0.1,1111122 
FWRI,ioos:station:FWRI:OTB:1,2013-02-12T09:59:00Z,27.9320,-82.6475,0.1,1111122 
FWRI,ioos:station:FWRI:OTB:1,2013-02-12T10:59:00Z,27.9320,-82.6475,0.1,1111122 
FWRI,ioos:station:FWRI:OTB:1,2013-02-12T11:59:00Z,27.9320,-82.6475,0.1,1111122 
FWRI,ioos:station:FWRI:OTB:1,2013-02-12T12:59:00Z,27.9320,-82.6475,0.3,1111122 
FWRI,ioos:station:FWRI:OTB:1,2013-02-12T13:59:00Z,27.9320,-82.6475,0.2,1111122 
FWRI,ioos:station:FWRI:OTB:1,2013-02-12T14:59:00Z,27.9320,-82.6475,0.5,1111122 
FWRI,ioos:station:FWRI:OTB:1,2013-02-12T15:59:00Z,27.9320,-82.6475,0.5,1111122 
FWRI,ioos:station:FWRI:OTB:1,2013-02-12T16:59:00Z,27.9320,-82.6475,0.3,1111122 
FWRI,ioos:station:FWRI:OTB:1,2013-02-12T17:59:00Z,27.9320,-82.6475,0.3,1111122 
FWRI,ioos:station:FWRI:OTB:1,2013-02-12T18:59:00Z,27.9320,-82.6475,0.3,1111122 
FWRI,ioos:station:FWRI:OTB:1,2013-02-12T19:59:00Z,27.9320,-82.6475,0.5,1111122 
FWRI,ioos:station:FWRI:OTB:1,2013-02-12T20:59:00Z,27.9320,-82.6475,0.3,1111122 
FWRI,ioos:station:FWRI:OTB:1,2013-02-12T21:59:00Z,27.9320,-82.6475,0.2,1111122 
FWRI,ioos:station:FWRI:OTB:1,2013-02-12T22:59:00Z,27.9320,-82.6475,0.2,1111122 
FWRI,ioos:station:FWRI:OTB:1,2013-02-12T23:59:00Z,27.9320,-82.6475,0.4,1111122 
FWRI,ioos:station:FWRI:OTB:1,2013-02-13T00:59:00Z,27.9320,-82.6475,0.4,1111122 
FWRI,ioos:station:FWRI:OTB:1,2013-02-13T01:59:00Z,27.9320,-82.6475,0.5,1111122 
FWRI,ioos:station:FWRI:OTB:1,2013-02-13T02:59:00Z,27.9320,-82.6475,0.5,1111122 
FWRI,ioos:station:FWRI:OTB:1,2013-02-13T03:59:00Z,27.9320,-82.6475,0.4,1111122 
FWRI,ioos:station:FWRI:OTB:1,2013-02-13T04:59:00Z,27.9320,-82.6475,0.5,1111122 
FWRI,ioos:station:FWRI:OTB:1,2013-02-13T05:59:00Z,27.9320,-82.6475,0.5,1111122 
FWRI,ioos:station:FWRI:OTB:1,2013-02-13T06:59:00Z,27.9320,-82.6475,0.4,1111122 
FWRI,ioos:station:FWRI:OTB:1,2013-02-13T07:59:00Z,27.9320,-82.6475,0.3,1111122 
FWRI,ioos:station:FWRI:OTB:1,2013-02-13T08:59:00Z,27.9320,-82.6475,0.2,1111122 
FWRI,ioos:station:FWRI:OTB:1,2013-02-13T09:59:00Z,27.9320,-82.6475,0.2,1111122 
FWRI,ioos:station:FWRI:OTB:1,2013-02-13T10:59:00Z,27.9320,-82.6475,0.2,1111122 
FWRI,ioos:station:FWRI:OTB:1,2013-02-13T11:59:00Z,27.9320,-82.6475,0.2,1111122 
FWRI,ioos:station:FWRI:OTB:1,2013-02-13T12:59:00Z,27.9320,-82.6475,0.5,1111122 
FWRI,ioos:station:FWRI:OTB:1,2013-02-13T13:59:00Z,27.9320,-82.6475,0.4,1111122 
FWRI,ioos:station:FWRI:OTB:1,2013-02-13T14:59:00Z,27.9320,-82.6475,0.3,1111122 
FWRI,ioos:station:FWRI:OTB:1,2013-02-13T15:59:00Z,27.9320,-82.6475,0.4,1111122 
FWRI,ioos:station:FWRI:OTB:1,2013-02-13T16:59:00Z,27.9320,-82.6475,0.6,1111122 
FWRI,ioos:station:FWRI:OTB:1,2013-02-13T17:59:00Z,27.9320,-82.6475,0.5,1111122 
FWRI,ioos:station:FWRI:OTB:1,2013-02-13T18:59:00Z,27.9320,-82.6475,0.5,1111122 
FWRI,ioos:station:FWRI:OTB:1,2013-02-13T19:59:00Z,27.9320,-82.6475,0.7,1111122 
FWRI,ioos:station:FWRI:OTB:1,2013-02-13T20:59:00Z,27.9320,-82.6475,0.5,1111122 
FWRI,ioos:station:FWRI:OTB:1,2013-02-13T21:59:00Z,27.9320,-82.6475,0.6,1111122 
FWRI,ioos:station:FWRI:OTB:1,2013-02-13T22:59:00Z,27.9320,-82.6475,0.4,1111122 
FWRI,ioos:station:FWRI:OTB:1,2013-02-13T23:59:00Z,27.9320,-82.6475,0.5,1111122 
FWRI,ioos:station:FWRI:OTB:1,2013-02-14T00:59:00Z,27.9320,-82.6475,0.6,1111122 
FWRI,ioos:station:FWRI:OTB:1,2013-02-14T01:59:00Z,27.9320,-82.6475,0.8,1111122 
FWRI,ioos:station:FWRI:OTB:1,2013-02-14T02:59:00Z,27.9320,-82.6475,0.5,1111122 
FWRI,ioos:station:FWRI:OTB:1,2013-02-14T03:59:00Z,27.9320,-82.6475,0.5,1111122 
FWRI,ioos:station:FWRI:OTB:1,2013-02-14T04:59:00Z,27.9320,-82.6475,0.5,1111122 
FWRI,ioos:station:FWRI:OTB:1,2013-02-14T05:59:00Z,27.9320,-82.6475,0.4,1111122 
FWRI,ioos:station:FWRI:OTB:1,2013-02-14T06:59:00Z,27.9320,-82.6475,0.5,1111122 
FWRI,ioos:station:FWRI:OTB:1,2013-02-14T07:59:00Z,27.9320,-82.6475,0.5,1111122 
FWRI,ioos:station:FWRI:OTB:1,2013-02-14T08:59:00Z,27.9320,-82.6475,0.4,1111122 
FWRI,ioos:station:FWRI:OTB:1,2013-02-14T09:59:00Z,27.9320,-82.6475,0.4,1111122 
FWRI,ioos:station:FWRI:OTB:1,2013-02-14T10:59:00Z,27.9320,-82.6475,0.3,1111122 
FWRI,ioos:station:FWRI:OTB:1,2013-02-14T11:59:00Z,27.9320,-82.6475,0.4,1111122 
FWRI,ioos:station:FWRI:OTB:1,2013-02-14T12:59:00Z,27.9320,-82.6475,0.4,1111122 
FWRI,ioos:station:FWRI:OTB:1,2013-02-14T13:59:00Z,27.9320,-82.6475,0.4,1111122 
FWRI,ioos:station:FWRI:OTB:1,2013-02-14T14:59:00Z,27.9320,-82.6475,0.4,1111122 
FWRI,ioos:station:FWRI:OTB:1,2013-02-14T15:59:00Z,27.9320,-82.6475,0.4,1111122 
FWRI,ioos:station:FWRI:OTB:1,2013-02-14T16:59:00Z,27.9320,-82.6475,1.1,1111122 
FWRI,ioos:station:FWRI:OTB:1,2013-02-14T17:59:00Z,27.9320,-82.6475,0.6,1111122 
FWRI,ioos:station:FWRI:OTB:1,2013-02-14T18:59:00Z,27.9320,-82.6475,0.8,1111122 
FWRI,ioos:station:FWRI:OTB:1,2013-02-14T19:59:00Z,27.9320,-82.6475,0.6,1111122 
FWRI,ioos:station:FWRI:OTB:1,2013-02-14T20:59:00Z,27.9320,-82.6475,0.5,1111122 
FWRI,ioos:station:FWRI:OTB:1,2013-02-14T21:59:00Z,27.9320,-82.6475,0.6,1111122 
FWRI,ioos:station:FWRI:OTB:1,2013-02-14T22:59:00Z,27.9320,-82.6475,1.2,1111122 
FWRI,ioos:station:FWRI:OTB:1,2013-02-14T23:59:00Z,27.9320,-82.6475,0.7,1111122 
FWRI,ioos:station:FWRI:OTB:1,2013-02-15T00:59:00Z,27.9320,-82.6475,0.6,1111122 
FWRI,ioos:station:FWRI:OTB:1,2013-02-15T01:59:00Z,27.9320,-82.6475,0.6,1111122 
FWRI,ioos:station:FWRI:OTB:1,2013-02-15T02:59:00Z,27.9320,-82.6475,0.5,1111122 
FWRI,ioos:station:FWRI:OTB:1,2013-02-15T03:59:00Z,27.9320,-82.6475,0.7,1111122 
FWRI,ioos:station:FWRI:OTB:1,2013-02-15T04:59:00Z,27.9320,-82.6475,1.1,1111122 
FWRI,ioos:station:FWRI:OTB:1,2013-02-15T05:59:00Z,27.9320,-82.6475,0.6,1111122 
FWRI,ioos:station:FWRI:OTB:1,2013-02-15T06:59:00Z,27.9320,-82.6475,0.8,1111122 
FWRI,ioos:station:FWRI:OTB:1,2013-02-15T07:59:00Z,27.9320,-82.6475,0.5,1111122 
FWRI,ioos:station:FWRI:OTB:1,2013-02-15T08:59:00Z,27.9320,-82.6475,0.5,1111122 
FWRI,ioos:station:FWRI:OTB:1,2013-02-15T09:59:00Z,27.9320,-82.6475,0.6,1111122 
FWRI,ioos:station:FWRI:OTB:1,2013-02-15T10:59:00Z,27.9320,-82.6475,0.7,1111122 
FWRI,ioos:station:FWRI:OTB:1,2013-02-15T11:59:00Z,27.9320,-82.6475,0.7,1111122 
FWRI,ioos:station:FWRI:OTB:1,2013-02-15T12:59:00Z,27.9320,-82.6475,0.6,1111122 
FWRI,ioos:station:FWRI:OTB:1,2013-02-15T13:59:00Z,27.9320,-82.6475,0.6,1111122 
FWRI,ioos:station:FWRI:OTB:1,2013-02-15T14:59:00Z,27.9320,-82.6475,0.7,1111122 
FWRI,ioos:station:FWRI:OTB:1,2013-02-15T15:59:00Z,27.9320,-82.6475,0.6,1111122 
FWRI,ioos:station:FWRI:OTB:1,2013-02-15T16:59:00Z,27.9320,-82.6475,0.6,1111122 
FWRI,ioos:station:FWRI:OTB:1,2013-02-15T17:59:00Z,27.9320,-82.6475,0.6,1111122 
FWRI,ioos:station:FWRI:OTB:1,2013-02-15T18:59:00Z,27.9320,-82.6475,0.6,1111122 
FWRI,ioos:station:FWRI:OTB:1,2013-02-15T19:59:00Z,27.9320,-82.6475,0.5,1111122 
FWRI,ioos:station:FWRI:OTB:1,2013-02-15T20:59:00Z,27.9320,-82.6475,0.5,1111122 
FWRI,ioos:station:FWRI:OTB:1,2013-02-15T21:59:00Z,27.9320,-82.6475,0.5,1111122 
FWRI,ioos:station:FWRI:OTB:1,2013-02-15T22:59:00Z,27.9320,-82.6475,0.7,1111122 
FWRI,ioos:station:FWRI:OTB:1,2013-02-15T23:59:00Z,27.9320,-82.6475,0.7,1111122 
FWRI,ioos:station:FWRI:OTB:1,2013-02-16T00:59:00Z,27.9320,-82.6475,0.5,1111122 
FWRI,ioos:station:FWRI:OTB:1,2013-02-16T01:59:00Z,27.9320,-82.6475,0.7,1111122 
FWRI,ioos:station:FWRI:OTB:1,2013-02-16T02:59:00Z,27.9320,-82.6475,0.6,1111122 
FWRI,ioos:station:FWRI:OTB:1,2013-02-16T03:59:00Z,27.9320,-82.6475,0.6,1111122 
FWRI,ioos:station:FWRI:OTB:1,2013-02-16T04:59:00Z,27.9320,-82.6475,0.7,1111122 
FWRI,ioos:station:FWRI:OTB:1,2013-02-16T05:59:00Z,27.9320,-82.6475,0.8,1111122 
FWRI,ioos:station:FWRI:OTB:1,2013-02-16T06:59:00Z,27.9320,-82.6475,0.8,1111122 
FWRI,ioos:station:FWRI:OTB:1,2013-02-16T07:59:00Z,27.9320,-82.6475,0.7,1111122 
FWRI,ioos:station:FWRI:OTB:1,2013-02-16T08:59:00Z,27.9320,-82.6475,0.6,1111122 
FWRI,ioos:station:FWRI:OTB:1,2013-02-16T09:59:00Z,27.9320,-82.6475,1.1,1111122 
FWRI,ioos:station:FWRI:OTB:1,2013-02-16T10:59:00Z,27.9320,-82.6475,0.9,1111122 
FWRI,ioos:station:FWRI:OTB:1,2013-02-16T11:59:00Z,27.9320,-82.6475,1.0,1111122 
FWRI,ioos:station:FWRI:OTB:1,2013-02-16T12:59:00Z,27.9320,-82.6475,0.5,1111122 
FWRI,ioos:station:FWRI:OTB:1,2013-02-16T13:59:00Z,27.9320,-82.6475,0.4,1111122 
FWRI,ioos:station:FWRI:OTB:1,2013-02-16T14:59:00Z,27.9320,-82.6475,0.5,1111122 
FWRI,ioos:station:FWRI:OTB:1,2013-02-16T15:59:00Z,27.9320,-82.6475,0.5,1111122 
FWRI,ioos:station:FWRI:OTB:1,2013-02-16T16:59:00Z,27.9320,-82.6475,0.8,1111122 
FWRI,ioos:station:FWRI:OTB:1,2013-02-16T17:59:00Z,27.9320,-82.6475,1.0,1111122 
FWRI,ioos:station:FWRI:OTB:1,2013-02-16T18:59:00Z,27.9320,-82.6475,1.6,1111122 
FWRI,ioos:station:FWRI:OTB:1,2013-02-16T19:59:00Z,27.9320,-82.6475,1.4,1111122 
FWRI,ioos:station:FWRI:OTB:1,2013-02-16T20:59:00Z,27.9320,-82.6475,2.0,1111122 
FWRI,ioos:station:FWRI:OTB:1,2013-02-16T21:59:00Z,27.9320,-82.6475,2.0,1111122 
FWRI,ioos:station:FWRI:OTB:1,2013-02-16T22:59:00Z,27.9320,-82.6475,2.0,1111122 
FWRI,ioos:station:FWRI:OTB:1,2013-02-16T23:59:00Z,27.9320,-82.6475,1.5,1111122 
FWRI,ioos:station:FWRI:OTB:1,2013-02-17T00:59:00Z,27.9320,-82.6475,1.6,1111122 
FWRI,ioos:station:FWRI:OTB:1,2013-02-17T01:59:00Z,27.9320,-82.6475,2.1,1111122 
FWRI,ioos:station:FWRI:OTB:1,2013-02-17T02:59:00Z,27.9320,-82.6475,2.6,1111122 
FWRI,ioos:station:FWRI:OTB:1,2013-02-17T03:59:00Z,27.9320,-82.6475,3.0,1111122 
FWRI,ioos:station:FWRI:OTB:1,2013-02-17T04:59:00Z,27.9320,-82.6475,3.2,1111122 